When you browse on this site, cookies collect data to enhance your experience and personalize the content and advertising you see.
Visit our Privacy Policy to learn more. By continuing to use the site, you agree to this use of cookies and data.

Hourly Weather Kalgoorlie

Today, 5 July, Sunday

Time Temperature Precipitation Wind Pressure Humidity
00:00 +12°C° 0 mm 4 mps 737 mmHg 50%
01:00 +11°C° 0 mm 4 mps 736 mmHg 52%
02:00 +11°C° 0 mm 4 mps 736 mmHg 56%
03:00 +11°C° 0 mm 4 mps 736 mmHg 56%
04:00 +10°C° 0 mm 4 mps 736 mmHg 57%
05:00 +10°C° 0 mm 4 mps 735 mmHg 58%
06:00 +10°C° 0 mm 4 mps 735 mmHg 56%
07:00 +11°C° 0 mm 4 mps 736 mmHg 55%
08:00 +10°C° 0 mm 5 mps 736 mmHg 53%
09:00 +14°C° 0 mm 6 mps 735 mmHg 47%
10:00 +17°C° 0 mm 6 mps 735 mmHg 40%
11:00 +20°C° 0 mm 7 mps 735 mmHg 34%
12:00 +21°C° 0 mm 7 mps 734 mmHg 32%
13:00 +23°C° 0 mm 7 mps 733 mmHg 30%
14:00 +24°C° 0 mm 7 mps 733 mmHg 26%
15:00 +23°C° 0 mm 6 mps 732 mmHg 29%
16:00 +22°C° 0 mm 5 mps 732 mmHg 31%
17:00 +21°C° 0 mm 4 mps 732 mmHg 33%
18:00 +20°C° 0 mm 4 mps 732 mmHg 35%
19:00 +19°C° 0 mm 4 mps 732 mmHg 36%
20:00 +17°C° 0 mm 5 mps 732 mmHg 38%
21:00 +17°C° 0 mm 5 mps 732 mmHg 39%
22:00 +16°C° 0 mm 5 mps 732 mmHg 41%
23:00 +16°C° 0 mm 6 mps 732 mmHg 42%

Tomorrow, 6 July, Monday

Time Temperature Precipitation Wind Pressure Humidity
00:00 +15°C° 0 mm 6 mps 732 mmHg 42%
01:00 +15°C° 0 mm 6 mps 732 mmHg 42%
02:00 +15°C° 0 mm 6 mps 731 mmHg 42%
03:00 +14°C° 0 mm 7 mps 732 mmHg 41%
04:00 +14°C° 0 mm 7 mps 732 mmHg 39%
05:00 +14°C° 0 mm 7 mps 732 mmHg 38%
06:00 +15°C° 0 mm 7 mps 732 mmHg 37%
07:00 +15°C° 0 mm 7 mps 733 mmHg 36%
08:00 +15°C° 0 mm 6 mps 733 mmHg 36%
09:00 +17°C° 0 mm 7 mps 733 mmHg 34%
10:00 +19°C° 0 mm 9 mps 733 mmHg 33%
11:00 +22°C° 0 mm 10 mps 733 mmHg 31%
12:00 +22°C° 0 mm 10 mps 732 mmHg 32%
13:00 +23°C° 0 mm 9 mps 732 mmHg 32%
14:00 +23°C° 0 mm 9 mps 731 mmHg 32%
15:00 +23°C° 0 mm 8 mps 731 mmHg 31%
16:00 +23°C° 0 mm 7 mps 731 mmHg 30%
17:00 +23°C° 0 mm 6 mps 731 mmHg 29%
18:00 +20°C° 0.3 mm 5 mps 731 mmHg 46%
19:00 +17°C° 0.3 mm 5 mps 732 mmHg 63%
20:00 +14°C° 0.3 mm 4 mps 732 mmHg 80%
21:00 +14°C° 0.2 mm 4 mps 732 mmHg 81%
22:00 +14°C° 0.2 mm 3 mps 733 mmHg 82%
23:00 +14°C° 0.2 mm 2 mps 733 mmHg 83%

Day after tomorrow, 7 July, Tuesday

Time Temperature Precipitation Wind Pressure Humidity
00:00 +12°C° 0 mm 3 mps 733 mmHg 82%
01:00 +11°C° 0 mm 3 mps 733 mmHg 81%
02:00 +11°C° 0 mm 3 mps 733 mmHg 80%
03:00 +10°C° 0 mm 3 mps 733 mmHg 81%
04:00 +9°C° 0 mm 3 mps 734 mmHg 83%
05:00 +9°C° 0 mm 3 mps 734 mmHg 84%
06:00 +9°C° 0 mm 3 mps 734 mmHg 84%
07:00 +9°C° 0 mm 3 mps 734 mmHg 83%
08:00 +9°C° 0 mm 3 mps 735 mmHg 83%
09:00 +11°C° 0 mm 3 mps 735 mmHg 72%
10:00 +13°C° 0 mm 4 mps 735 mmHg 61%
11:00 +15°C° 0 mm 4 mps 735 mmHg 50%
12:00 +16°C° 0 mm 5 mps 735 mmHg 45%
13:00 +17°C° 0 mm 5 mps 734 mmHg 40%
14:00 +19°C° 0 mm 6 mps 733 mmHg 35%
15:00 +17°C° 0 mm 5 mps 734 mmHg 38%
16:00 +16°C° 0 mm 5 mps 734 mmHg 41%
17:00 +15°C° 0 mm 4 mps 734 mmHg 43%
18:00 +14°C° 0 mm 4 mps 734 mmHg 48%
19:00 +13°C° 0 mm 4 mps 734 mmHg 53%
20:00 +12°C° 0 mm 4 mps 735 mmHg 57%
21:00 +11°C° 0 mm 4 mps 735 mmHg 61%
22:00 +10°C° 0 mm 3 mps 735 mmHg 65%
23:00 +10°C° 0 mm 3 mps 735 mmHg 69%

8 July, Wednesday

Time Temperature Precipitation Wind Pressure Humidity
00:00 +9°C° 0 mm 3 mps 735 mmHg 71%
01:00 +9°C° 0 mm 3 mps 735 mmHg 72%
02:00 +8°C° 0 mm 2 mps 735 mmHg 74%
03:00 +8°C° 0 mm 2 mps 735 mmHg 74%
04:00 +8°C° 0 mm 2 mps 735 mmHg 74%
05:00 +7°C° 0 mm 2 mps 735 mmHg 74%
06:00 +8°C° 0 mm 2 mps 735 mmHg 74%
07:00 +8°C° 0 mm 2 mps 735 mmHg 73%
08:00 +9°C° 0 mm 2 mps 736 mmHg 72%
09:00 +11°C° 0 mm 3 mps 736 mmHg 65%
10:00 +12°C° 0 mm 3 mps 736 mmHg 57%
11:00 +14°C° 0 mm 3 mps 736 mmHg 50%
12:00 +16°C° 0 mm 3 mps 735 mmHg 46%
13:00 +17°C° 0 mm 2 mps 734 mmHg 43%
14:00 +18°C° 0 mm 2 mps 734 mmHg 39%
15:00 +17°C° 0 mm 2 mps 734 mmHg 42%
16:00 +16°C° 0 mm 2 mps 734 mmHg 46%
17:00 +15°C° 0 mm 2 mps 734 mmHg 49%
18:00 +14°C° 0 mm 3 mps 734 mmHg 51%
19:00 +14°C° 0 mm 3 mps 735 mmHg 53%
20:00 +13°C° 0 mm 3 mps 735 mmHg 56%
21:00 +12°C° 0 mm 4 mps 735 mmHg 56%
22:00 +11°C° 0 mm 4 mps 735 mmHg 57%
23:00 +10°C° 0 mm 4 mps 735 mmHg 58%

9 July, Thursday

Time Temperature Precipitation Wind Pressure Humidity
00:00 +8°C° 0 mm 4 mps 735 mmHg 61%
01:00 +9°C° 0 mm 3 mps 735 mmHg 64%
02:00 +8°C° 0 mm 3 mps 735 mmHg 67%
03:00 +7°C° 0 mm 3 mps 735 mmHg 71%
04:00 +7°C° 0 mm 3 mps 735 mmHg 74%
05:00 +7°C° 0 mm 3 mps 735 mmHg 77%
06:00 +7°C° 0 mm 3 mps 735 mmHg 76%
07:00 +7°C° 0 mm 3 mps 736 mmHg 74%
08:00 +7°C° 0 mm 2 mps 736 mmHg 72%
09:00 +9°C° 0 mm 2 mps 736 mmHg 66%
10:00 +10°C° 0 mm 3 mps 736 mmHg 59%
11:00 +12°C° 0 mm 3 mps 736 mmHg 52%
12:00 +13°C° 0 mm 3 mps 736 mmHg 49%
13:00 +13°C° 0 mm 4 mps 735 mmHg 46%
14:00 +14°C° 0 mm 4 mps 735 mmHg 42%
15:00 +13°C° 0 mm 4 mps 735 mmHg 43%
16:00 +13°C° 0 mm 4 mps 735 mmHg 44%
17:00 +12°C° 0 mm 5 mps 735 mmHg 45%
18:00 +10°C° 0 mm 5 mps 736 mmHg 49%
19:00 +10°C° 0 mm 4 mps 736 mmHg 54%
20:00 +7°C° 0 mm 4 mps 737 mmHg 58%
21:00 +7°C° 0 mm 4 mps 737 mmHg 61%
22:00 +6°C° 0 mm 4 mps 737 mmHg 65%
23:00 +6°C° 0 mm 4 mps 738 mmHg 68%

10 July, Friday

Time Temperature Precipitation Wind Pressure Humidity
00:00 +5°C° 0 mm 4 mps 738 mmHg 73%
01:00 +5°C° 0 mm 4 mps 738 mmHg 77%
02:00 +4°C° 0 mm 4 mps 738 mmHg 81%
03:00 +4°C° 0 mm 3 mps 738 mmHg 84%
04:00 +3°C° 0 mm 3 mps 738 mmHg 87%
05:00 +4°C° 0 mm 2 mps 738 mmHg 90%
06:00 +4°C° 0 mm 2 mps 738 mmHg 87%
07:00 +5°C° 0 mm 2 mps 739 mmHg 84%
08:00 +5°C° 0 mm 2 mps 739 mmHg 80%
09:00 +7°C° 0 mm 3 mps 739 mmHg 71%
10:00 +9°C° 0 mm 3 mps 739 mmHg 62%
11:00 +11°C° 0 mm 3 mps 740 mmHg 53%
12:00 +11°C° 0 mm 3 mps 739 mmHg 50%
13:00 +12°C° 0 mm 3 mps 738 mmHg 47%
14:00 +13°C° 0 mm 3 mps 738 mmHg 45%
15:00 +12°C° 0 mm 3 mps 738 mmHg 47%
16:00 +12°C° 0 mm 3 mps 738 mmHg 49%
17:00 +11°C° 0 mm 3 mps 738 mmHg 51%
18:00 +11°C° 0 mm 3 mps 739 mmHg 53%
19:00 +10°C° 0 mm 3 mps 739 mmHg 56%
20:00 +9°C° 0 mm 3 mps 739 mmHg 59%
21:00 +8°C° 0 mm 3 mps 739 mmHg 63%
22:00 +8°C° 0 mm 3 mps 739 mmHg 68%
23:00 +6°C° 0 mm 4 mps 740 mmHg 73%
Show more